Location: Gleizolles
(44.4833°N, 6.7667°E)
Time: 03:23:21
(UTC+00:00)

Vanguard 1 Rocket - Pass Details

Date: 23 June 2024
Orbit: 650 x 4219 km, 34.3° (Epoch: 15 July)

Event Time Altitude Azimuth Distance (km) Brightness Sun altitude
Rises 02:03:12 0° 246° (WSW) 5,662 - -14.1°
Reaches altitude 10° 02:06:17 10° 242° (WSW) 5,030 - -13.8°
Exits shadow 02:06:18 10° 242° (WSW) 5,026 10.6 -13.8°
Maximum altitude 02:22:15 61° 167° (SSE) 3,856 10.3 -12.1°
Drops below altitude 10° 02:47:15 10° 96° (E) 7,420 12.6 -9.2°
Sets 02:53:05 0° 94° (E) 8,369 13.0 -8.5°
